Date,TemperatureHighF,TemperatureAvgF,TemperatureLowF,DewpointHighF,DewpointAvgF,DewpointLowF,HumidityHigh,HumidityAvg,HumidityLow,PressureMaxIn,PressureMinIn,WindSpeedMaxMPH,WindSpeedAvgMPH,GustSpeedMaxMPH,PrecipitationSumIn
2013-9-1,78.0,72.0,66.0,63.0,60.4,58.0,76,67,57,29.90,29.78,4,2,0,0.00
2013-9-2,67.0,65.7,64.0,54.0,2.7,-99.9,66,43,64,30.03,30.01,2,2,0,0.00
2013-9-3,75.0,73.6,70.0,57.0,53.8,51.0,59,50,44,30.03,29.97,3,2,0,0.00
2013-9-4,-200.0,0.0,200.0,-99.9,-99.9,-99.9,0,0,100,30.05,30.05,0,0,0,0.00
2013-9-5,79.0,79.0,79.0,-99.9,-99.9,-99.9,0,0,100,30.17,30.17,0,0,0,0.00
2013-9-6,89.0,87.7,86.0,66.0,50.8,-99.9,50,43,43,29.99,29.85,9,5,0,0.00
2013-9-7,89.0,59.6,75.0,75.0,25.4,-99.9,82,53,58,29.91,29.82,4,1,0,0.00
2013-9-8,73.0,73.0,73.0,63.0,62.5,62.0,71,70,69,30.02,29.99,2,2,0,0.00
2013-9-9,94.0,86.8,75.0,76.0,52.4,-99.9,77,53,49,29.70,29.58,7,2,0,0.00
2013-9-10,85.0,76.9,68.0,69.0,66.2,63.0,91,71,52,29.95,29.70,3,1,0,0.00
2013-9-11,87.0,79.0,61.0,66.0,60.9,56.0,91,57,35,30.01,29.93,7,3,0,0.00
2013-9-12,75.0,70.7,63.0,55.0,50.5,45.0,65,49,43,30.15,30.09,5,2,0,0.00
2013-9-13,67.0,63.2,61.0,46.0,45.2,44.0,58,52,43,30.26,30.12,3,2,0,0.00
2013-9-14,75.0,71.5,66.0,51.0,42.4,-99.9,55,41,39,30.03,29.89,7,4,0,0.00
2013-9-15,59.0,53.1,48.0,54.0,49.6,46.0,94,88,83,30.29,30.17,1,0,0,0.00
2013-9-16,66.0,55.1,38.0,48.0,33.6,-99.9,97,61,36,30.41,30.26,2,1,0,0.00
2013-9-17,64.0,53.9,41.0,56.0,50.4,40.0,97,88,70,30.28,29.96,5,1,0,0.00
2013-9-18,72.0,63.9,60.0,69.0,62.6,59.0,97,95,90,29.92,29.70,2,1,0,0.00
2013-9-19,82.0,69.5,66.0,72.0,60.2,-99.9,97,83,71,29.75,29.64,6,1,0,0.00
2013-9-20,67.0,59.9,49.0,63.0,53.9,47.0,94,82,60,29.91,29.72,7,3,0,0.00
2013-9-21,64.0,51.8,42.0,51.0,40.9,-99.9,97,78,57,29.97,29.89,3,1,0,0.00
2013-9-22,72.0,45.3,37.0,56.0,25.2,-99.9,98,76,57,30.02,29.88,4,1,0,0.00
2013-9-23,73.0,61.4,49.0,54.0,51.2,47.0,93,72,50,29.99,29.87,5,2,0,0.00
2013-9-24,74.0,44.8,44.0,54.0,12.9,-99.9,98,64,49,29.98,29.91,3,1,0,0.00
2013-9-25,73.0,47.8,41.0,55.0,23.8,-99.9,98,69,52,30.00,29.87,3,1,0,0.00
2013-9-26,80.0,75.3,66.0,62.0,8.0,-99.9,54,36,54,29.95,29.85,4,2,0,0.00
2013-9-27,79.0,64.9,71.0,63.0,39.0,-99.9,70,54,58,29.96,29.82,4,2,0,0.00
2013-9-28,71.0,63.2,44.0,64.0,48.4,-99.9,95,73,73,29.96,29.66,8,3,0,0.00
2013-9-29,75.0,63.3,42.0,50.0,38.7,-99.9,96,50,37,29.98,29.83,6,3,0,0.00
2013-9-30,76.0,65.7,52.0,54.0,25.5,-99.9,84,44,41,29.84,29.62,9,3,0,0.00